Zurück zum Katalog

STARLINK-30702

AktivKommunikationVLEO
NORAD 57955·PAYLOAD·🇺🇸 United States

Gestartet Sep 25, 2023 von Vandenberg Space Force Base

Loading…

Nächste Überflüge (nächste 24 Stunden)

TLE

AktuellSource: CelesTrak SupGP

Epoche: Sep 14, 2026, 22:19 UTC

1 57955C 23148W   26257.93034722  .00010730  00000+0  31692-3 0  2572
2 57955  53.1595 211.9710 0001341  88.4249 195.2831 15.34395629    13

Verfolge STARLINK-30702 in Echtzeit mit AllMySat

Download on the App Store